Regional Weather Roundup
Issued by NWS Upton, NY

Current Version | Previous Version | Text Only | Print | Product List | Glossary On
Versions: 1 2 3 4 5 6 7 8 9 10 11 12 13 14 15 16 17 18 19 20 21 22 23 24 25 26 27 28 29 30 31 32 33 34 35 36 37 38 39 40 41 42 43 44 45 46 47 48 49 50
000
ASUS41 KOKX 300405
RWROKX

REGIONAL WEATHER ROUNDUP
NATIONAL WEATHER SERVICE NEW YORK NY
1200 AM EDT SAT AUG 30 2014

NOTE: "FAIR" INDICATES FEW OR NO CLOUDS BELOW 12,000 FEET WITH NO
SIGNIFICANT WEATHER AND/OR OBSTRUCTIONS TO VISIBILITY.

NYZ071-072-176-178-NJZ106-104-300500-
NEW YORK CITY METRO AREA


CITY           SKY/WX    TMP DP  RH WIND       PRES   REMARKS
CENTRAL PARK   CLEAR     67  53  61 VRB3      30.28R
LAGUARDIA APRT PTCLDY    69  53  56 SE7       30.25R
KENNEDY INTL   PTCLDY    67  55  65 SE6       30.26R
NEWARK/LIBERTY PTCLDY    69  54  58 S3        30.25R
BRNX BOT. GARD   N/A     64  54  68 CALM      30.27S
TETERBORO      CLEAR     68  52  56 CALM      30.24R
$$

NYZ177-179-078>081-300500-
LONG ISLAND NEW YORK

CITY           SKY/WX    TMP DP  RH WIND       PRES   REMARKS
FARMINGDALE    PTCLDY    62  55  77 E5        30.26R
ISLIP          PTCLDY    63  54  72 CALM      30.25R
SHIRLEY        CLEAR     57  53  86 CALM      30.27R
WESTHAMPTON    CLEAR     53  47  79 CALM      30.28S
MONTAUK POINT    N/A     61  56  83 CALM      30.28S
$$

NYZ052-065-067-300500-
HUDSON VALLEY

CITY           SKY/WX    TMP DP  RH WIND       PRES   REMARKS
WHITE PLAINS   CLEAR     59  55  87 CALM      30.26R
NEWBURGH       CLEAR     66  57  72 CALM      30.26R
MONTGOMERY     CLEAR     57  53  86 CALM      30.25R
POUGHKEEPSIE   CLEAR     61  55  81 S6        30.24R
ALBANY         PTCLDY    65  56  72 S12       30.22R
$$

NJZ001-105-106-008-010-013-015-019>022-104-300500-
NEW JERSEY

CITY           SKY/WX    TMP DP  RH WIND       PRES   REMARKS
NEWARK/LIBERTY PTCLDY    69  54  58 S3        30.25R
TETERBORO      CLEAR     68  52  56 CALM      30.24R
CALDWELL       CLEAR     62  53  72 CALM      30.26R
MORRISTOWN     CLEAR     57  52  82 CALM      30.26R
SOMERVILLE     CLEAR     59  55  87 CALM      30.24R
LINDEN         FAIR      71  58  64 CALM      30.27R
SUSSEX         CLEAR     59  55  87 CALM      30.25S
ANDOVER          N/A     60  54  80 CALM      30.26R
TRENTON        CLEAR     64  56  75 CALM      30.25R
MILLVILLE      CLEAR     56  54  93 CALM      30.25R
ATLANTIC CITY  CLEAR     58  55  90 CALM      30.25R
WRIGHTSTOWN    CLEAR     57  57  99 SE3       30.23R
TOMS RIVER     CLEAR     54  48  82 CALM      30.26R
BELMAR         CLEAR     63  52  67 SE5       30.25S
$$

PAZ047>061-062-071-300500-
EASTERN PENNSYLVANIA

CITY           SKY/WX    TMP DP  RH WIND       PRES   REMARKS
PHILADELPHIA   PTCLDY    68  59  73 S5        30.25R
ALLENTOWN      CLEAR     67  56  67 S5        30.24S
SCRANTON       CLEAR     64  53  67 VRB7      30.22S
$$

CTZ002-004>006-009-010-012-RIZ004-006-007-MAZ004-011-015-300500-
SOUTHERN NEW ENGLAND
 IN CT

CITY           SKY/WX    TMP DP  RH WIND       PRES   REMARKS
BRADLEY INTL   PTCLDY    62  54  74 S6        30.25S
HARTFORD       CLEAR     62  55  77 S5        30.26S
DANBURY        CLEAR     60  54  80 CALM      30.27S
WTRBRY/OXFORD  CLEAR     57  52  82 S3        30.28S
BRIDGEPORT     CLEAR     67  56  67 S7        30.26S
MERIDEN        CLEAR     57  53  86 CALM      30.26F
NEW HAVEN      CLEAR     66  55  67 S6        30.26S
CHESTER        FAIR      61  55  82 CALM      30.28S
GROTON         CLEAR     64  58  80 S9        30.26F
WILLIMANTIC    CLEAR     57  54  89 CALM      30.28S

 IN RI

CITY           SKY/WX    TMP DP  RH WIND       PRES   REMARKS
PROVIDENCE     PTCLDY    59  55  87 CALM      30.28F
BLOCK ISLAND   CLEAR     61  52  72 SE5       30.27S
WESTERLY       CLEAR     58  54  86 CALM      30.28S

 IN MA

CITY           SKY/WX    TMP DP  RH WIND       PRES   REMARKS
BOSTON         PTCLDY    61  54  77 S8        30.28S
WORCESTER      CLEAR     56  53  90 SW7       30.29R
WESTFIELD      CLEAR     60  54  80 CALM      30.26R
PROVINCETOWN   CLEAR     52  46  82 S3        30.28F
NANTUCKET      CLEAR     55  48  77 E7        30.28S
$$

ANZ330-335-338-340-345-350-353-355-300500-
COASTAL MARINE OBSERVATIONS


STATION/POSITION TIME  SKY/WX   TEMP    WIND        PRES    VSBY  WAVE
                                AIR SEA DIR/SP/G                  HT/PER
                 (UTC)          (F)     (DEG/KT/KT) (MB)    (MI)  (FT/S)
NY HARB ENTRANCE NOT AVBL
4S FIRE IS       NOT AVBL
23SW MTP         0400                                 N/A           3/ 9
HUDSON CANYON    0400            70 72  120/ 12/ 14 1023.9          3/ 9
EXECUTION ROCKS  0400            68 74  150/  6/  8   N/A
WESTERN LI SOUND 0400            69     160/  6/  6   N/A           0
CENTRAL LI SOUND 0300            69 73  160/ 10/ 14   N/A           1/ 2
EASTERN LI SOUND 0300            67 69  150/ 10/ 12   N/A
ROBBINS REEF     0400            70     140/  7/  9   N/A
$$


>>>>>>>>>>>>>>>>>>>>>>>>>>>> KEY <<<<<<<<<<<<<<<<<<<<<<<<<<<
>                                                          <
>     SKY/WX - SKY CONDITION/PRESENT WEATHER               <
>     TMP    - TEMPERATURE IN FAHRENHEIT                   <
>     DP     - DEWPOINT IN FAHRENHEIT                      <
>     RH     - RELATIVE HUMIDITY IN PERCENT                <
>     WIND   - DIRECTION AND SPEED IN MPH                  <
>     PRES   - MEAN SEA LEVEL PRESSURE IN INCHES OF HG     <
>     WCI    - WIND CHILL INDEX                            <
>     VSB    - VISIBILITY IN MILES                         <
>     HX     - HEAT INDEX                                  <
>     TC     - TEMPERATURE IN CELSIUS                      <
>     VRB    - VARIABLE WIND DIRECTION                     <
>                                                          <
>>>>>>>>>>>>>>>>>>>>>>>>>>>> KEY <<<<<<<<<<<<<<<<<<<<<<<<<<<




USA.gov is the U.S. government's official web portal to all federal, state and local government web resources and services.